Weather History for West Yellowstone, MT

Change the Weather History Date:

Monday, September 10, 2012

  Actual Average Record
Temperature  
Mean Temperature 56 °F -  
Max Temperature 71 °F 68 °F 75 °F (2011)
Min Temperature 41 °F 33 °F 26 °F (2011)
Degree Days  
Heating Degree Days 9    
Growing Degree Days 6 (Base 50)    
Moisture  
Dew Point -    
Average Humidity    
Maximum Humidity    
Minimum Humidity    
Precipitation  
Precipitation 0.00 in - - ()
Sea Level Pressure  
Sea Level Pressure 30.03 in    
Wind  
Wind Speed 9 mph (SSW)    
Max Wind Speed 33 mph    
Max Gust Speed 41 mph    
Visibility 10 miles    
Events      
Averages and records for this station are not official NWS values.
T = Trace of Precipitation, MM = Missing Value Source: NWS Daily Summary

Daily Weather History Graph

Daily Weather History Graph

Search for Another Location

Airport:

Trip Planner

Search our weather history database for the weather conditions in past years. The results will help you decide how hot, cold, wet, or windy it might be!

Date:

Astronomy

Sep. 10, 2012 Rise Set
Actual Time 6:58 AM MDT 7:43 PM MDT
Civil Twilight 6:28 AM MDT 8:12 PM MDT
Nautical Twilight 5:53 AM MDT 8:47 PM MDT
Astronomical Twilight 5:16 AM MDT 9:24 PM MDT
Moon 1:11 AM MDT (9/10) 4:25 PM MDT (9/10)
Length of Visible Light 13h 44m
Length of Day
12h 45m
Waning Crescent, 29% of the Moon is Illuminated
Sep 10
Waning Crescent
Sep 15
New
Sep 22
First Quarter
Sep 29
Full
Oct 8
Last Quarter

Hourly Weather History & Observations

Time (MDT) Temp. Windchill Dew Point Humidity Pressure Visibility Wind Dir Wind Speed Gust Speed Precip Events Conditions
12:10 AM 50.0 °F - - N/A% 30.08 in 10.0 mi North 5.8 mph - N/A   Clear
12:30 AM 50.0 °F - - N/A% 30.08 in 10.0 mi Calm Calm - N/A   Clear
12:50 AM 48.2 °F - - N/A% 30.08 in 10.0 mi ENE 4.6 mph - N/A   Clear
1:10 AM 48.2 °F - - N/A% 30.07 in 10.0 mi ESE 3.5 mph - N/A   Clear
1:30 AM 48.2 °F - - N/A% 30.07 in 10.0 mi East 4.6 mph - N/A   Clear
1:50 AM 50.0 °F - - N/A% 30.07 in 10.0 mi Calm Calm - N/A   Clear
2:10 AM 50.0 °F - - N/A% 30.06 in 10.0 mi Calm Calm - N/A   Clear
2:30 AM 50.0 °F - - N/A% 30.06 in 10.0 mi Calm Calm - N/A   Clear
2:50 AM 50.0 °F - - N/A% 30.06 in 10.0 mi Calm Calm - N/A   Clear
3:10 AM 50.0 °F - - N/A% 30.06 in 10.0 mi Calm Calm - N/A   Clear
3:30 AM 51.8 °F - - N/A% 30.06 in 10.0 mi South 6.9 mph - N/A   Clear
3:50 AM 50.0 °F - - N/A% 30.06 in 10.0 mi South 5.8 mph - N/A   Clear
4:10 AM 48.2 °F - - N/A% 30.05 in 10.0 mi SSE 4.6 mph - N/A   Clear
4:30 AM 48.2 °F - - N/A% 30.05 in 10.0 mi ESE 4.6 mph - N/A   Clear
4:50 AM 46.4 °F 43.5 °F - N/A% 30.05 in 10.0 mi SE 5.8 mph - N/A   Clear
5:10 AM 44.6 °F 43.1 °F - N/A% 30.05 in 10.0 mi SE 3.5 mph - N/A   Clear
5:30 AM 44.6 °F 43.1 °F - N/A% 30.05 in 10.0 mi NE 3.5 mph - N/A   Clear
5:50 AM 44.6 °F - - N/A% 30.05 in 10.0 mi Calm Calm - N/A   Partly Cloudy
6:10 AM 42.8 °F 40.1 °F - N/A% 30.04 in 10.0 mi North 4.6 mph - N/A   Clear
6:30 AM 44.6 °F - - N/A% 30.04 in 10.0 mi Calm Calm - N/A   Clear
6:50 AM 41.0 °F 38.0 °F - N/A% 30.04 in 10.0 mi NE 4.6 mph - N/A   Mostly Cloudy
7:10 AM 44.6 °F 43.1 °F - N/A% 30.04 in 10.0 mi NNE 3.5 mph - N/A   Mostly Cloudy
7:30 AM 48.2 °F - - N/A% 30.05 in 10.0 mi Calm Calm - N/A   Mostly Cloudy
7:50 AM 51.8 °F - - N/A% 30.05 in 10.0 mi WSW 4.6 mph - N/A   Mostly Cloudy
8:10 AM 55.4 °F - - N/A% 30.05 in 10.0 mi West 3.5 mph - N/A   Overcast
8:30 AM 55.4 °F - - N/A% 30.05 in 10.0 mi WSW 4.6 mph - N/A   Mostly Cloudy
8:50 AM 57.2 °F - - N/A% 30.06 in 10.0 mi SW 3.5 mph - N/A   Scattered Clouds
9:10 AM 59.0 °F - - N/A% 30.06 in 10.0 mi SSW 13.8 mph 19.6 mph N/A   Scattered Clouds
9:30 AM 62.6 °F - - N/A% 30.05 in 10.0 mi SSW 18.4 mph 26.5 mph N/A   Partly Cloudy
9:50 AM 62.6 °F - - N/A% 30.05 in 10.0 mi SSW 19.6 mph 33.4 mph N/A   Clear
10:10 AM 64.4 °F - - N/A% 30.05 in 10.0 mi SW 21.9 mph 40.3 mph N/A   Clear
10:30 AM 64.4 °F - - N/A% 30.04 in 10.0 mi SSW 27.6 mph 36.8 mph N/A   Clear
10:50 AM 66.2 °F - - N/A% 30.04 in 10.0 mi SSW 23.0 mph 34.5 mph N/A   Clear
11:10 AM 66.2 °F - - N/A% 30.04 in 10.0 mi SW 19.6 mph 38.0 mph N/A   Clear
11:30 AM 68.0 °F - - N/A% 30.03 in 10.0 mi SW 26.5 mph 38.0 mph N/A   Clear
11:50 AM 68.0 °F - - N/A% 30.03 in 10.0 mi SW 19.6 mph 34.5 mph N/A   Clear
12:10 PM 69.8 °F - - N/A% 30.02 in 10.0 mi SW 19.6 mph 32.2 mph N/A   Clear
12:30 PM 71.6 °F - - N/A% 30.02 in 10.0 mi SW 21.9 mph 34.5 mph N/A   Clear
12:50 PM 71.6 °F - - N/A% 30.01 in 10.0 mi SW 21.9 mph 39.1 mph N/A   Clear
1:10 PM 71.6 °F - - N/A% 30.01 in 10.0 mi SW 21.9 mph 38.0 mph N/A   Clear
1:30 PM 71.6 °F - - N/A% 30.01 in 10.0 mi SW 23.0 mph 34.5 mph N/A   Clear
1:50 PM 71.6 °F - - N/A% 30.01 in 10.0 mi SW 25.3 mph 36.8 mph N/A   Clear
2:10 PM 71.6 °F - - N/A% 30.01 in 10.0 mi SSW 21.9 mph 41.4 mph N/A   Clear
2:30 PM 71.6 °F - - N/A% 30.00 in 10.0 mi SW 16.1 mph 35.7 mph N/A   Clear
2:50 PM 71.6 °F - - N/A% 30.00 in 10.0 mi SSW 21.9 mph 33.4 mph N/A   Clear
3:10 PM 71.6 °F - - N/A% 30.00 in 10.0 mi SSW 29.9 mph 38.0 mph N/A   Clear
3:30 PM 71.6 °F - - N/A% 30.00 in 10.0 mi SSW 20.7 mph 29.9 mph N/A   Clear
3:50 PM 71.6 °F - - N/A% 30.00 in 10.0 mi SW 21.9 mph 33.4 mph N/A   Clear
4:10 PM 71.6 °F - - N/A% 30.00 in 10.0 mi SW 19.6 mph 33.4 mph N/A   Clear
4:30 PM 71.6 °F - - N/A% 29.99 in 10.0 mi SW 24.2 mph 34.5 mph N/A   Clear
4:50 PM 71.6 °F - - N/A% 29.99 in 10.0 mi SSW 33.4 mph 40.3 mph N/A   Clear
5:10 PM 71.6 °F - - N/A% 29.99 in 10.0 mi SSW 25.3 mph 34.5 mph N/A   Clear
5:30 PM 69.8 °F - - N/A% 29.99 in 10.0 mi SW 20.7 mph 34.5 mph N/A   Clear
5:50 PM 69.8 °F - - N/A% 30.00 in 10.0 mi SSW 23.0 mph 32.2 mph N/A   Clear
6:10 PM 68.0 °F - - N/A% 30.00 in 10.0 mi SSW 20.7 mph 34.5 mph N/A   Clear
6:30 PM 68.0 °F - - N/A% 30.00 in 10.0 mi SSW 21.9 mph 31.1 mph N/A   Clear
6:50 PM 68.0 °F - - N/A% 30.00 in 10.0 mi SSW 12.7 mph 27.6 mph N/A   Clear
7:10 PM 66.2 °F - - N/A% 30.00 in 10.0 mi SSW 13.8 mph 23.0 mph N/A   Clear
7:30 PM 64.4 °F - - N/A% 30.00 in 10.0 mi SSW 8.1 mph - N/A   Clear
7:50 PM 64.4 °F - - N/A% 30.00 in 10.0 mi SSW 6.9 mph 16.1 mph N/A   Clear
8:10 PM 62.6 °F - - N/A% 30.01 in 10.0 mi Calm Calm - N/A   Clear
8:30 PM 59.0 °F - - N/A% 30.01 in 10.0 mi NNE 6.9 mph - N/A   Clear
8:50 PM 59.0 °F - - N/A% 30.02 in 10.0 mi ESE 5.8 mph - N/A   Clear
9:10 PM 57.2 °F - - N/A% 30.03 in 10.0 mi ENE 4.6 mph - N/A   Clear
9:30 PM 57.2 °F - - N/A% 30.04 in 10.0 mi South 3.5 mph - N/A   Clear
9:50 PM 57.2 °F - - N/A% 30.04 in 10.0 mi South 6.9 mph - N/A   Clear
10:10 PM 57.2 °F - - N/A% 30.04 in 10.0 mi South 12.7 mph 18.4 mph N/A   Clear
10:30 PM 57.2 °F - - N/A% 30.04 in 10.0 mi SSW 20.7 mph - N/A   Clear
10:50 PM 57.2 °F - - N/A% 30.04 in 10.0 mi SW 12.7 mph 21.9 mph N/A   Clear
11:10 PM 57.2 °F - - N/A% 30.04 in 10.0 mi SW 12.7 mph 19.6 mph N/A   Clear
11:30 PM 55.4 °F - - N/A% 30.04 in 10.0 mi SW 11.5 mph 19.6 mph N/A   Clear
11:50 PM 55.4 °F - - N/A% 30.04 in 10.0 mi SW 13.8 mph 21.9 mph N/A   Clear